TimeCST,TemperatureF,Dew PointF,Humidity,Sea Level PressureIn,VisibilityMPH,Wind Direction,Wind SpeedMPH,Gust SpeedMPH,PrecipitationIn,Events,Conditions,WindDirDegrees,DateUTC
12:53 AM,36.0,33.1,89,29.84,6.0,Calm,Calm,-,N/A,,Clear,0,2012-12-18 06:53:00
1:23 AM,35.6,33.8,93,29.83,1.5,ENE,3.5,-,N/A,,Clear,60,2012-12-18 07:23:00
1:31 AM,35.6,33.8,93,29.83,0.5,Calm,Calm,-,N/A,Fog,Fog,0,2012-12-18 07:31:00
1:44 AM,33.8,32.0,93,29.83,1.8,NE,3.5,-,N/A,,Clear,50,2012-12-18 07:44:00
1:46 AM,33.8,32.0,93,29.83,3.0,NE,3.5,-,N/A,,Clear,50,2012-12-18 07:46:00
1:53 AM,34.0,32.0,92,29.83,5.0,ENE,3.5,-,N/A,,Clear,60,2012-12-18 07:53:00
2:53 AM,35.1,32.0,89,29.83,4.0,Calm,Calm,-,N/A,,Clear,0,2012-12-18 08:53:00
3:53 AM,35.1,32.0,89,29.83,5.0,NE,4.6,-,N/A,,Clear,50,2012-12-18 09:53:00
4:53 AM,34.0,32.0,92,29.83,3.0,Calm,Calm,-,N/A,,Clear,0,2012-12-18 10:53:00
5:04 AM,33.8,30.2,87,29.82,1.8,Calm,Calm,-,N/A,,Clear,0,2012-12-18 11:04:00
5:23 AM,33.8,30.2,87,29.82,3.0,Calm,Calm,-,N/A,,Clear,0,2012-12-18 11:23:00
5:53 AM,34.0,30.9,89,29.83,4.0,NE,4.6,-,N/A,,Clear,40,2012-12-18 11:53:00
6:16 AM,33.8,30.2,87,29.82,1.5,ENE,3.5,-,N/A,,Clear,70,2012-12-18 12:16:00
6:19 AM,33.8,30.2,87,29.81,0.8,ENE,3.5,-,N/A,,Mist,60,2012-12-18 12:19:00
6:41 AM,32.0,30.2,93,29.82,1.2,NE,4.6,-,N/A,,Partly Cloudy,50,2012-12-18 12:41:00
6:44 AM,32.0,30.2,93,29.82,3.0,Calm,Calm,-,N/A,,Partly Cloudy,0,2012-12-18 12:44:00
6:53 AM,33.1,30.9,92,29.83,1.0,NE,4.6,-,N/A,,Mist,50,2012-12-18 12:53:00
7:53 AM,34.0,30.9,89,29.82,3.0,ENE,5.8,-,N/A,,Clear,60,2012-12-18 13:53:00
8:53 AM,37.9,35.1,89,29.82,3.0,ENE,8.1,-,N/A,,Clear,60,2012-12-18 14:53:00
9:53 AM,44.1,37.0,76,29.84,7.0,ENE,9.2,-,N/A,,Clear,60,2012-12-18 15:53:00
10:53 AM,50.0,39.0,66,29.83,9.0,NE,4.6,-,N/A,,Unknown,50,2012-12-18 16:53:00
11:53 AM,55.9,39.9,55,29.80,10.0,NNE,4.6,-,N/A,,Clear,30,2012-12-18 17:53:00
12:53 PM,61.0,37.0,41,29.78,10.0,Calm,Calm,-,N/A,,Clear,0,2012-12-18 18:53:00
1:53 PM,64.9,36.0,34,29.76,10.0,Calm,Calm,-,N/A,,Clear,0,2012-12-18 19:53:00
2:53 PM,66.0,35.1,32,29.76,10.0,Calm,Calm,-,N/A,,Clear,0,2012-12-18 20:53:00
3:53 PM,66.0,36.0,33,29.77,10.0,NNE,4.6,-,N/A,,Clear,20,2012-12-18 21:53:00
4:53 PM,62.1,36.0,38,29.78,10.0,Calm,Calm,-,N/A,,Clear,0,2012-12-18 22:53:00
5:53 PM,53.1,36.0,52,29.80,10.0,Calm,Calm,-,N/A,,Clear,0,2012-12-18 23:53:00
6:53 PM,48.9,37.0,64,29.82,10.0,Calm,Calm,-,N/A,,Clear,0,2012-12-19 00:53:00
7:53 PM,50.0,37.0,61,29.83,10.0,Calm,Calm,-,N/A,,Clear,0,2012-12-19 01:53:00
8:53 PM,45.0,36.0,71,29.84,10.0,ENE,3.5,-,N/A,,Clear,70,2012-12-19 02:53:00
9:53 PM,46.0,37.0,71,29.84,10.0,NE,3.5,-,N/A,,Clear,50,2012-12-19 03:53:00
10:53 PM,46.0,37.0,71,29.83,10.0,East,4.6,-,N/A,,Clear,90,2012-12-19 04:53:00
11:53 PM,44.1,36.0,73,29.83,10.0,ENE,4.6,-,N/A,,Clear,60,2012-12-19 05:53:00